sat.trackr.live / text

‹ back to catalog

STARLINK-31994

NORAD 60588 · 2024-150F

PAYLOAD ACTIVE UNKNOWN

§ Identity

Operator
Country
US
Launch date
2024-08-20
Launch site
AFETR
Launch vehicle
Mass (kg)
RCS (m²)

Purposes: comms

External: N2YO · Heavens-Above · Gunter

§ Orbital elements

Epoch: 2026-09-21T20:53:44.623968Z

Period
93.85 min
Inclination
53.1607°
Eccentricity
0.0001335
Mean motion
15.34383972 rev/d
Perigee alt
461.8 km
Apogee alt
463.7 km
Semi-major
6,840.9 km
B*
-2.6318e-5
RAAN
111.0976°
Arg perigee
89.8984°
Mean anomaly
270.2172°
Rev number
11,806

§ Raw data

STARLINK-319941 60588U 24150F   26264.87065537 -.00001265  00000+0 -26318-4 0  99992 60588  53.1607 111.0976 0001335  89.8984 270.2172 15.34383972118066

JSON: /api/v1/satellites/60588 · /tle

For live sub-satellite position, see the globe view (requires WebGL).

§ Visibility from observer

Set your observer location to see the next 7 days of passes ≥ 10°. The values pass through the URL so the page stays shareable.

No JS? Fill the form by hand. The geolocation button needs JavaScript.